{"data":{"norad_id":61867,"intl_designator":"2024-202Y","name":"STARLINK-32569","alt_names":[],"object_type":"PAYLOAD","status":"ACTIVE","operator":null,"country":"US","launch_date":"2024-11-07","launch_site_code":"AFETR","launch_vehicle":null,"mission":null,"orbit_class":"UNKNOWN","rcs_meters":null,"size_class":null,"mass_kg":null,"dimensions":null,"purposes":["comms"],"wikipedia_slug":null,"has_3d_model":false,"image_url":null,"decayed_at":null,"tle_current":{"epoch":"2026-05-25T01:34:15.719808Z","epoch_age_seconds":62696,"freshness":"FRESH","line1":"1 61867U 24202Y   26145.06545972  .00000636  00000+0  32618-4 0  9992","line2":"2 61867  43.0004 167.0570 0001539 262.8621  97.2055 15.27580587 87014","mean_motion":15.27580587,"eccentricity":0.0001539,"inclination_deg":43.0004,"raan_deg":167.057,"arg_perigee_deg":262.8621,"mean_anomaly_deg":97.2055,"bstar":3.2618e-5,"rev_number":8701,"period_min":94.266712489977,"perigee_km":481.99140208137,"apogee_km":484.10327462072,"semimajor_km":6861.184338351,"source":"CELESTRAK","updated_at":"2026-05-25T13:38:19.473044Z"}}}